If you wish to contribute or participate in the discussions about articles you are invited to join SKYbrary as a registered user

 Actions

Noi Bai International Airport

From SKYbrary Wiki

VVNB
Airport
ICAO: VVNB – IATA: HAN
Summary
Name Noi Bai International Airport
Region Asia and Pacific
Territory Vietnam VN.gif
Location Hanoi, Hanoi
Serving Hanoi
Elevation 11.887 m
39 ft11.887 m
Coordinates 21° 13' 16.00" N, 105° 48' 25.99" E
Runways
Designator Length Width Surface ROPS
11L/29R 3800 m12,467.192 ft
45 m147.638 ft
CON yes/yes
11R/29L 3800 m12,467.192 ft
45 m147.638 ft
CON yes/yes


METAR
Observation VVNB 300430Z 36007KT 320V060 CAVOK 21/06 Q1024 NOSIG
Station Ha Noi
Date/Time 30 November 2020 04:30:00
Wind direction 360°
Wind speed 07 kts
Lowest cloud amount clouds and visibility OK
Temperature 21°C
Dew point 6°C
Humidity 37%
QNH 1024 hPa
Weather condition n/a

LOS
Tag(s) Parallel Runway Operation

International airport serving the city of Hanoi, Vietnam.

Climatology

Humid subtropical climate (Köppen climate classification Cwa)

Maps

Terrain

Loading map...

Airport Layout

Loading map...


Accidents & Serious Incidents at or in vicinity of VVNB

None on SKYbrary